This is the latest recevied weather packets stored in our database for station/object KA7KDX-4. If no packets are shown the sender has not sent any weather packets the latest 10 day(s).
| Time | Temp. | Humidity | Pressure | Rain* | Wind** | Luminosity | Snow |
|---|---|---|---|---|---|---|---|
| 1777592105 | 15.56° C | 22% | 1011.9 hPa | 0 mm | - | - | - |
| 1777591805 | 15.56° C | 21% | 1012 hPa | 0 mm | - | - | - |
| 1777591505 | 15.56° C | 20% | 1011.9 hPa | 0 mm | - | - | - |
| 1777591205 | 15.56° C | 21% | 1012 hPa | 0 mm | - | - | - |
| 1777590906 | 15.56° C | 21% | 1011.9 hPa | 0 mm | - | - | - |
| 1777590606 | 15.56° C | 21% | 1011.9 hPa | 0 mm | - | - | - |
| 1777590306 | 15.56° C | 20% | 1011.9 hPa | 0 mm | - | - | - |
| 1777590006 | 15.56° C | 21% | 1012 hPa | 0 mm | - | - | - |
| 1777589706 | 15.56° C | 21% | 1012 hPa | 0 mm | - | - | - |
| 1777589405 | 15.56° C | 20% | 1012 hPa | 0 mm | - | - | - |
| 1777589105 | 15.56° C | 20% | 1012.1 hPa | 0 mm | - | - | - |
| 1777588805 | 15.56° C | 20% | 1012.1 hPa | 0 mm | - | - | - |
| 1777588505 | 15.56° C | 20% | 1012.1 hPa | 0 mm | - | - | - |
| 1777588207 | 16.11° C | 20% | 1012.2 hPa | 0.25 mm | - | - | - |
| 1777587906 | 15.56° C | 19% | 1012.3 hPa | 0.25 mm | - | - | - |
| 1777587606 | 16.11° C | 20% | 1012.2 hPa | 0.25 mm | - | - | - |
| 1777587306 | 16.11° C | 21% | 1012.3 hPa | 0 mm | - | - | - |
| 1777587006 | 16.11° C | 21% | 1012.3 hPa | 0 mm | - | - | - |
| 1777586705 | 16.11° C | 21% | 1012.3 hPa | 0 mm | - | - | - |
| 1777586405 | 15.56° C | 19% | 1012.5 hPa | 0 mm | - | - | - |
| 1777586105 | 15.56° C | 20% | 1012.6 hPa | 0 mm | - | - | - |
| 1777585805 | 15.56° C | 19% | 1012.7 hPa | 0 mm | - | - | - |
| 1777585505 | 15.56° C | 21% | 1012.8 hPa | 0 mm | - | - | - |
| 1777585206 | 15.56° C | 24% | 1012.8 hPa | 0 mm | - | - | - |
| 1777584906 | 15.56° C | 26% | 1012.8 hPa | 0 mm | - | - | - |
* Rain latest hour (hover to see other rain measurements)
** Current wind speed in m/s (hover to see current wind gust speed)